Home   Weather   Słupsk   Past weeks

Flag for Poland Past Weather in Słupsk, Poland — Yesterday and Last 2 Weeks

Now
41 °F

Clear.


Feels Like: 36 °F
Forecast: 38 / 43 °F
Wind: 8 mph from West

Location: Leba

Current Time: Apr 24, 2017 at 3:38:21 am

Latest Report: Apr 24, 2017 at 2:00 am


Visibility: 13 mi

Pressure: 29.92 "Hg

Humidity: 68%

Dew Point: 31 °F

Location of SłupskLocation

Past Weather in Słupsk — Graph

°F

Słupsk Temperature Yesterday

Maximum temperature yesterday: 49 °F (at 1:00 pm)
Minimum temperature yesterday: 41 °F (at 9:00 pm)
Average temperature yesterday: 43 °F

High & Low Weather Summary for the Past Weeks

 TemperatureHumidityPressure
High66 °F (Apr 10, 1:00 pm)98% (Apr 17, 4:00 am)30.58 "Hg (Apr 17, 4:00 am)
Low25 °F (Apr 20, 5:00 am)43% (Apr 18, 11:00 am)29.50 "Hg (Apr 13, 1:00 am)
Average42 °F79%29.96 "Hg
* Reported Apr 9 2:00 am — Apr 24 2:00 am, Słupsk, Weather by CustomWeather, © 2017

Note: Actual official high and low records may vary slightly from our data, if they occured in-between our weather recording intervals... More about our weather records

Advertising

Słupsk Weather History for the Previous 24 Hours

Scroll right to see more
 ConditionsComfort  
Time TempWeatherWind HumidityBarometerVisibility
2:00 am
Mon, Apr 24
N/APassing clouds.22 mphN/AN/A2 mi
1:00 amN/APassing clouds.22 mphN/AN/A9 mi
12:00 am42 °FPassing clouds.7 mph69%29.93 "Hg12 mi
11:00 pm
Sun, Apr 23
42 °FOvercast.7 mph74%29.92 "Hg12 mi
10:00 pm42 °FOvercast.7 mph81%29.92 "Hg12 mi
9:00 pm41 °FPassing clouds.6 mph81%29.92 "Hg12 mi
8:00 pm42 °FOvercast.7 mph75%29.91 "Hg12 mi
7:00 pm43 °FSprinkles. Overcast.9 mph83%29.90 "Hg12 mi
6:00 pm44 °FOvercast.9 mph80%29.91 "Hg12 mi
5:00 pm44 °FOvercast.12 mph77%29.90 "Hg12 mi
4:00 pm45 °FPassing clouds.22 mph77%29.90 "Hg7 mi
3:00 pm46 °FOvercast.12 mph72%29.90 "Hg12 mi
2:00 pm45 °FPassing clouds.23 mph77%29.91 "Hg19 mi
1:00 pm49 °FPartly sunny.14 mph74%29.90 "Hg12 mi
12:00 pm47 °FPartly sunny.10 mph67%29.90 "Hg12 mi
11:00 am45 °FOvercast.9 mph72%29.91 "Hg12 mi
10:00 am45 °FOvercast.8 mph68%29.91 "Hg12 mi
9:00 am44 °FPartly sunny.6 mph71%29.89 "Hg12 mi
8:00 am44 °FPassing clouds.3 mph72%29.88 "Hg12 mi
7:00 am43 °FPassing clouds.5 mph72%29.87 "Hg12 mi
6:00 am42 °FPassing clouds.5 mph72%29.85 "Hg12 mi
5:00 am42 °FPassing clouds.5 mph70%29.84 "Hg12 mi
4:00 am42 °FPassing clouds.5 mph71%29.83 "Hg12 mi
3:00 am42 °FPassing clouds.5 mph67%29.82 "Hg12 mi
Weather by CustomWeather, © 2017

See weather overviewHow to use our weather pages